Regional Weather Roundup
Issued by NWS

Home | Current Version | Previous Version | Graphics & Text | Print | Product List | Glossary On
Versions: 1 2 3 4 5 6 7 8 9 10 11 12 13 14 15 16 17 18 19 20 21 22 23 24 25 26 27 28 29 30 31 32 33 34 35 36 37 38 39 40 41 42 43 44 45 46 47 48 49 50
000
ASUS43 KOAX 191402
RWRNE

WEATHER ROUNDUP FOR NEBRASKA
NATIONAL WEATHER SERVICE OMAHA NE
900 AM CDT SUN APR 19 2015

NOTES: SATELLITE DATA IS BEING USED TO AUGMENT CLOUD COVER ABOVE
       12000 FEET.
       "FAIR" INDICATES FEW OR NO CLOUDS BELOW 12,000 FEET WITH NO
       SIGNIFICANT WEATHER AND/OR OBSTRUCTIONS TO VISIBILITY.

  * THESE STATIONS DO NOT REPORT WEATHER SUCH AS RAIN...SNOW OR FOG.

NEZ001>004-019>022-054>056-191500-
NEBRASKA PANHANDLE

CITY           SKY/WX    TMP DP  RH WIND       PRES   REMARKS
SCOTTSBLUFF    MOSUNNY   40  32  73 NW20G26   30.12S WCI  30
ALLIANCE       MOSUNNY   40  30  67 NW21G28   30.07R WCI  30
CHADRON        SUNNY     40  31  70 NW14      30.11S WCI  32
SIDNEY         SUNNY     39  30  70 N23       30.08R WCI  28
$$

NEZ057>060-069>072-079>082-191500-
SOUTHWEST NEBRASKA

CITY           SKY/WX    TMP DP  RH WIND       PRES   REMARKS
NORTH PLATTE   CLOUDY    46  39  76 N23G35    29.96R
IMPERIAL       CLOUDY    44  35  70 N25G36    30.00R
LEXINGTON      LGT RAIN  46  41  82 N36G47    29.90R
MCCOOK         LGT RAIN  45  39  79 N23G36    29.94R
$$

NEZ005>010-023>029-035>040-094-191500-
NORTH CENTRAL NEBRASKA

CITY           SKY/WX    TMP DP  RH WIND       PRES   REMARKS
VALENTINE      SUNNY     45  33  63 N21G29    29.99R
AINSWORTH      MOSUNNY   44  36  73 N26G33    29.95S
BROKEN BOW     CLOUDY    46  38  73 N32G41    29.89R
ORD            CLOUDY    47  40  76 N29G39    29.85R
$$

NEZ041-046>049-061>064-073>077-083>087-191500-
SOUTH CENTRAL NEBRASKA

CITY           SKY/WX    TMP DP  RH WIND       PRES   REMARKS
GRAND ISLAND   LGT RAIN  48  46  93 N15       29.84R FOG
HASTINGS       LGT RAIN  49  46  90 N20       29.83R FOG
KEARNEY *      CLOUDY    46  45  93 N16G23    29.86S
YORK           LGT RAIN  50  48  93 N13G22    29.82R
$$

NEZ011>018-030>034-042>045-191500-
NORTHEAST NEBRASKA

CITY           SKY/WX    TMP DP  RH WIND       PRES   REMARKS
BLAIR          RAIN      53  51  95 NW13G18   29.73S
COLUMBUS *     CLOUDY    50  43  76 N17       29.81S
FREMONT        RAIN      52  50  93 NW17      29.77S
TEKAMAH        LGT RAIN  55  52  89 NW22      29.73R
$$

NEZ050>053-065>068-078-088>093-191500-
SOUTHEAST NEBRASKA

CITY           SKY/WX    TMP DP  RH WIND       PRES   REMARKS
LINCOLN        LGT RAIN  53  50  89 NW17G25   29.78R
OMAHA EPPLEY   LGT RAIN  55  54  96 NW8       29.73R FOG
FALLS CITY     CLOUDY    56  53  90 W13       29.71F
PLATTSMOUTH    RAIN      54  52  95 W10       29.73F
$$

NEZ044-045-051>053-067-191500-
OMAHA AREA

CITY           SKY/WX    TMP DP  RH WIND       PRES   REMARKS
OMAHA EPPLEY   LGT RAIN  55  54  96 NW8       29.73R FOG
BLAIR          RAIN      53  51  95 NW13G18   29.73S
FREMONT        RAIN      52  50  93 NW17      29.77S
OFFUTT AFB     HVY RAIN  55  55  99 W9        29.72S FOG
PLATTSMOUTH    RAIN      54  52  95 W10       29.73F
$$


USA.gov is the U.S. government's official web portal to all federal, state and local government web resources and services.